Home > Weather > Shijiazhuang > Past weeks

Flag for China Weather for the Past 2 Weeks in Shijiazhuang, Hebei, China

Now
37 °F

Haze.


Feels Like: 35 °F
Forecast: 25 / 53 °F
Wind: 3 mph from North

Location: Taiyuan Airport

Current Time: Feb 8, 2016 at 11:17:57 AM

Latest Report: Feb 8, 2016 at 10:30 AM


Visibility: 2 mi

Pressure: 30.04 "Hg

Humidity: 26%

Dew point: 5 °F

Location of ShijiazhuangLocation

Historic Weather in Shijiazhuang — Graph

°F

Shijiazhuang Temperature Yesterday

Maximum temperature yesterday: 43 °F (at 3:00 PM)
Minimum temperature yesterday: 10 °F (at 6:30 AM)
Average temperature yesterday: 27 °F

High & Low Weather Summary for the Past Weeks

 TemperatureHumidityPressure
High43 °F (Feb 7, 3:00 PM)86% (Jan 30, 3:00 PM)30.80 "Hg (Jan 30, 3:00 PM)
Low0 °F (Jan 25, 4:30 AM)9% (Feb 6, 5:30 PM)30.01 "Hg (Feb 8, 3:30 AM)
Average22 °F34%30.33 "Hg
* Reported Jan 24 10:00 AM — Feb 8 10:00 AM, Shijiazhuang, Weather by CustomWeather, © 2016

Note: Actual official high and low records may vary slightly from our data, if they occured in-between our weather recording intervals... More about our weather records

Advertising

Shijiazhuang Weather History for the Previous 24 Hours

 ConditionsComfort  
Time TempWeatherWind HumidityBarometerVisibility
10:00 AM
Mon, Feb 8
36 °FHaze.6 mph27%30.04 "Hg1 mi
9:30 AM32 °FHaze.6 mph37%30.04 "Hg1 mi
9:00 AM28 °FHaze.3 mph40%30.04 "Hg2 mi
8:30 AM21 °FHaze.1 mph54%30.04 "Hg2 mi
7:30 AM18 °FHaze.6 mph58%30.01 "Hg2 mi
7:00 AM18 °FHaze.1 mph58%30.01 "Hg2 mi
6:30 AM18 °FHaze.1 mph58%30.01 "Hg3 mi
6:00 AM18 °FHaze.3 mph53%30.01 "Hg3 mi
5:30 AM21 °FHaze.3 mph54%30.01 "Hg3 mi
5:00 AM21 °FHaze.3 mph54%30.01 "Hg3 mi
4:30 AM21 °FHaze.3 mph54%30.01 "Hg3 mi
4:00 AM18 °FHaze.3 mph58%30.01 "Hg2 mi
3:30 AM19 °FClear.1 mph53%30.01 "Hg2 mi
3:00 AM25 °FClear.3 mph46%30.04 "Hg2 mi
2:30 AM27 °FClear.3 mph39%30.04 "Hg2 mi
2:00 AM23 °FClear.3 mph50%30.04 "Hg2 mi
1:30 AM28 °FClear.1 mph40%30.04 "Hg2 mi
1:00 AM25 °FClear.3 mph46%30.04 "Hg2 mi
12:30 AM27 °FHaze.3 mph39%30.07 "Hg3 mi
12:00 AM25 °FClear.6 mph46%30.07 "Hg4 mi
11:30 PM
Sun, Feb 7
28 °FClear.3 mph40%30.07 "Hg5 mi
11:00 PM30 °FClear.6 mph37%30.07 "Hg5 mi
10:30 PM28 °FClear.3 mph37%30.09 "Hg10 mi
10:00 PM32 °FClear.3 mph32%30.09 "Hg10 mi
9:30 PM30 °FClear.3 mph31%30.09 "Hg10 mi
9:00 PM32 °FClear.6 mph29%30.09 "Hg10 mi
8:30 PM32 °FClear.3 mph25%30.09 "Hg10 mi
8:00 PM32 °FClear.3 mph21%30.09 "Hg10 mi
7:30 PM34 °FClear.3 mph18%30.09 "Hg10 mi
7:00 PM34 °FClear.8 mph18%30.12 "Hg10 mi
6:30 PM36 °FClear.13 mph15%30.12 "Hg10 mi
6:00 PM37 °FClear.13 mph13%30.09 "Hg10 mi
5:30 PM39 °FSunny.17 mph12%30.09 "Hg10 mi
5:00 PM41 °FSunny.13 mph10%30.09 "Hg10 mi
4:30 PM41 °FSunny.17 mph11%30.07 "Hg10 mi
4:00 PM41 °FSunny.15 mph12%30.07 "Hg10 mi
3:30 PM43 °FSunny.17 mph11%30.07 "Hg10 mi
3:00 PM43 °FSunny.17 mph10%30.07 "Hg10 mi
2:30 PM41 °FPassing clouds.10 mph11%30.09 "HgN/A
2:00 PM39 °FPassing clouds.10 mph14%30.09 "HgN/A
1:30 PM39 °FPassing clouds.10 mph17%30.12 "HgN/A
1:00 PM39 °FSunny.15 mph12%30.12 "Hg10 mi
12:30 PM37 °FPassing clouds.13 mph14%30.15 "HgN/A
12:00 PM34 °FPassing clouds.6 mph21%30.18 "HgN/A
11:30 AM32 °FPassing clouds.6 mph23%30.18 "HgN/A
11:00 AM30 °FClear.8 mph31%30.18 "Hg5 mi
Weather by CustomWeather, © 2016

See weather overviewHow to use our weather pages